Theta_e
320 319 320 320 321 325 336 345 349 350 347 346 347 347 345 346 345 341 339 343 345 344 343 344 344 343 342 341 342 342 344 341 343 340 342 344 343 341 341 341 344 344 343 339
318 320 320 321 322 325 324 337 349 347 345 346 346 348 347 345 344 342 338 343 344 344 344 344 344 344 342 342 340 340 341 341 343 342 342 342 343 342 342 340 341 341 341 341
319 321 321 323 324 334 331 346 348 348 341 344 347 346 348 345 343 343 341 342 344 344 345 345 344 344 343 343 344 339 338 341 341 341 343 342 343 344 345 343 343 339 340 341
317 318 320 320 322 326 330 345 341 341 344 351 345 347 345 346 344 341 342 341 343 345 345 345 344 344 343 343 344 342 340 340 341 344 344 342 342 343 344 344 343 343 340 343
318 318 318 319 319 333 342 343 342 344 348 348 349 348 344 345 346 342 341 342 340 344 344 344 344 343 343 343 343 343 342 342 340 340 344 344 342 342 341 345 345 342 342 343
318 320 316 323 335 339 342 341 345 344 345 349 345 349 349 347 344 342 339 341 341 341 344 344 344 344 344 343 344 344 344 343 344 342 343 344 343 343 339 343 344 341 342 343
318 321 326 340 342 340 332 332 343 343 348 349 345 349 346 343 340 341 339 340 341 340 343 345 345 344 344 344 343 343 343 343 343 339 340 340 342 343 342 342 344 343 344 343
319 320 317 324 339 340 334 333 340 346 347 349 345 350 344 339 340 340 342 339 340 341 342 343 344 343 344 345 343 342 343 344 342 340 340 341 341 343 342 343 342 345 342 345
319 320 320 321 329 333 337 337 334 343 343 347 347 344 342 341 342 342 340 340 340 341 341 343 343 342 344 344 344 343 342 342 342 342 344 342 343 344 345 344 345 345 346 346
321 321 322 322 325 333 330 329 336 334 346 346 348 342 341 346 350 344 342 339 340 342 341 341 342 342 344 344 344 344 342 341 339 341 344 344 343 344 344 345 344 345 344 346
320 320 323 322 323 322 321 323 322 327 334 343 349 345 338 340 347 345 341 340 340 342 342 341 341 342 343 344 345 344 344 344 341 341 341 343 342 342 344 345 343 344 345 345
320 317 321 324 321 320 321 322 320 323 326 333 339 333 343 343 343 342 340 339 340 343 343 343 342 343 344 344 345 344 345 345 345 338 341 343 343 344 346 344 345 344 347 346
323 318 321 321 323 322 323 328 326 314 315 321 322 323 339 339 338 339 339 340 340 344 343 343 343 344 344 344 345 345 345 346 346 341 339 344 345 345 347 346 348 347 346 345
322 316 319 321 325 324 332 337 338 319 318 318 320 323 343 340 339 339 341 340 341 341 343 344 344 344 344 344 344 345 346 347 347 345 339 343 344 345 345 342 345 345 346 346
320 324 321 320 326 333 335 336 339 344 344 319 322 332 343 338 336 337 338 343 342 342 342 343 344 343 344 345 345 346 347 346 348 345 342 340 343 344 344 345 347 344 344 343
319 325 326 331 331 332 331 332 336 341 340 343 340 342 339 335 333 336 338 341 344 343 342 344 343 343 343 344 344 344 347 347 348 346 344 341 344 344 345 347 345 342 346 348
321 322 324 328 328 331 332 331 331 341 336 337 339 335 333 335 337 337 339 339 341 345 347 346 345 345 345 345 345 346 348 345 346 347 343 343 344 344 344 343 346 344 343 345
320 320 321 325 327 330 329 329 330 338 337 335 333 332 333 337 339 339 339 337 341 345 346 344 345 345 345 346 349 349 347 346 345 344 343 343 344 343 342 343 342 344 345 343
317 320 324 325 327 330 331 330 330 332 336 334 342 340 340 339 337 336 338 340 341 341 343 344 344 344 346 348 348 346 345 344 344 342 342 341 341 343 344 343 341 343 342 343
319 315 321 322 327 332 327 328 328 329 333 333 337 340 339 337 334 335 335 338 341 341 341 342 341 338 339 342 342 341 344 342 342 341 341 341 341 341 340 341 341 343 341 341
321 318 324 325 329 326 324 326 327 330 329 334 336 336 337 334 333 336 335 336 337 340 342 343 342 343 343 337 336 340 343 341 343 341 341 340 338 341 341 340 340 341 340 340
320 321 320 323 326 328 325 326 327 325 331 331 330 333 336 336 334 334 335 335 336 338 339 340 342 343 342 336 337 339 341 334 334 336 337 333 339 341 340 340 340 339 338 339
320 320 321 321 322 323 326 326 329 330 332 331 331 334 335 335 333 333 333 332 334 336 336 337 338 339 339 339 340 342 342 338 337 334 333 337 340 340 338 337 337 336 337 337
320 321 320 321 322 325 325 326 328 331 333 333 334 334 336 334 333 332 332 332 331 331 332 334 335 335 335 335 336 338 339 338 340 340 340 339 339 338 338 337 336 337 338 336
321 321 320 322 323 325 324 324 327 330 333 334 335 334 334 334 332 331 329 329 329 329 328 327 328 330 332 333 334 334 334 334 335 336 337 337 337 337 337 337 336 336 335 334
321 319 321 321 323 323 323 323 324 325 329 332 332 333 333 332 332 330 329 328 327 325 322 319 317 317 319 321 324 326 329 331 332 332 332 333 332 332 332 333 333 332 331 329
Wind_Speed
3 4 5 6 4 4 3 3 3 4 8 3 2 2 4 15 9 15 25 31 33 37 36 32 30 29 26 22 22 24 25 22 19 18 16 15 14 15 12 11 8 6 7 8
5 2 6 4 4 4 2 0 5 6 5 3 1 4 2 4 6 2 23 31 34 35 37 37 33 31 29 27 24 24 27 23 20 20 17 14 15 13 10 8 8 9 9 7
4 5 5 4 3 2 4 4 8 6 3 4 3 1 4 4 5 7 10 35 36 42 43 40 37 33 30 29 28 25 27 25 23 21 17 18 18 16 13 11 8 7 9 7
4 7 6 4 5 7 6 4 8 11 10 3 2 3 6 9 6 7 11 20 32 36 43 41 39 35 32 27 27 27 24 25 26 20 19 18 19 21 17 15 9 8 10 9
7 4 4 5 7 7 2 8 7 5 5 3 2 1 5 13 14 11 15 17 27 37 40 44 41 34 30 26 26 29 26 24 28 23 23 20 18 16 16 16 11 10 10 12
8 6 5 1 1 9 18 17 12 6 3 2 5 6 3 6 22 15 10 23 20 37 42 43 40 35 31 27 26 26 27 23 22 22 26 25 22 18 16 16 13 12 10 15
5 3 3 13 13 3 6 5 3 5 3 3 3 4 7 6 10 21 15 25 25 31 44 40 40 38 34 31 27 27 26 25 22 23 25 24 25 22 20 19 15 15 14 14
1 5 7 3 9 10 9 5 5 6 5 4 3 3 5 4 6 29 35 31 30 28 44 47 45 39 36 32 29 27 27 26 25 24 23 23 25 23 21 20 20 19 16 15
1 5 5 5 6 9 6 4 4 6 3 2 2 5 9 12 15 17 33 25 34 35 43 49 46 40 38 33 31 27 24 26 26 27 24 25 26 25 20 18 20 19 16 16
2 4 3 5 4 4 6 7 3 2 5 4 2 0 8 7 8 7 20 34 36 41 43 45 47 43 40 35 32 26 23 20 24 26 26 25 25 22 22 17 17 19 17 16
2 2 7 3 3 6 3 1 5 4 4 4 4 5 11 4 8 7 12 25 33 39 45 45 47 44 40 37 35 29 27 22 20 24 25 24 23 23 19 18 19 20 18 16
4 4 3 6 5 5 1 4 3 4 4 2 3 5 6 11 8 10 4 16 26 32 43 43 43 44 41 38 38 33 29 26 21 21 25 25 24 21 20 18 16 18 17 13
2 2 3 9 6 6 6 5 3 3 3 4 5 4 5 15 15 15 9 13 21 23 35 39 35 38 40 38 37 35 32 27 24 22 24 25 24 23 21 18 16 16 17 17
3 2 4 5 4 2 4 5 4 3 3 2 5 4 6 6 9 9 8 7 16 23 24 30 33 34 34 36 38 35 33 30 28 25 23 25 26 24 21 19 18 18 16 15
4 1 2 4 5 8 3 4 6 4 1 5 4 2 4 3 6 9 8 6 10 17 22 27 27 29 32 34 37 37 35 26 31 27 23 23 22 22 21 21 20 18 18 15
5 1 2 1 5 10 5 10 4 5 4 1 3 4 3 5 10 11 8 7 2 19 23 23 28 31 32 34 35 37 36 33 33 27 24 24 24 23 24 23 21 18 19 18
3 2 3 3 3 4 5 5 5 0 4 2 2 2 2 6 12 10 9 7 3 8 19 25 28 30 31 38 39 42 42 35 30 27 24 24 23 28 26 24 20 21 20 21
4 3 2 2 4 2 3 1 2 3 5 6 6 3 7 10 13 12 10 7 8 11 10 12 18 19 25 27 36 41 32 28 24 23 28 20 19 18 25 26 25 19 22 22
6 4 3 3 2 4 5 2 1 4 1 2 4 9 10 13 11 11 9 8 8 5 7 9 9 8 16 16 22 25 29 29 19 22 23 22 22 22 16 16 20 22 22 21
4 5 4 2 3 5 6 1 5 5 4 3 2 6 11 7 3 2 3 5 5 4 8 10 10 11 7 6 7 12 14 12 17 18 18 16 12 11 12 14 14 13 14 19
3 4 3 3 2 5 5 4 3 1 6 7 6 4 2 2 3 7 1 4 7 7 5 5 10 16 21 16 11 16 15 22 17 16 9 8 11 13 14 12 12 13 14 17
3 3 2 1 1 4 2 3 6 5 4 10 10 9 10 15 12 7 9 8 7 9 10 8 11 16 19 13 13 14 16 16 13 15 23 15 14 15 12 10 10 11 11 12
1 5 4 7 4 5 4 4 3 7 8 6 9 11 12 14 12 10 11 10 11 10 11 10 9 10 10 10 14 21 17 15 14 12 13 16 15 14 11 10 9 9 8 7
3 4 2 1 3 2 1 10 12 9 4 8 10 11 16 18 13 13 12 12 11 11 10 10 9 11 12 10 8 9 12 13 14 13 11 10 12 14 12 11 10 12 12 12
4 7 4 3 3 2 4 9 15 12 9 13 12 11 13 14 16 14 14 11 11 10 10 9 10 10 10 9 9 9 8 8 7 7 9 10 11 11 9 13 15 16 15 12
9 6 5 5 14 6 11 13 11 9 11 9 12 14 11 8 13 13 12 10 8 10 10 9 8 8 9 9 9 8 7 7 6 7 6 6 7 6 7 9 10 9 8 9
Wind_Direction
138 98 190 217 209 165 140 114 87 6 12 358 82 136 144 222 220 174 160 171 180 188 187 188 188 180 178 169 173 178 183 182 182 174 172 179 182 192 195 194 179 184 182 175
26 231 219 188 206 237 103 7 126 63 311 346 61 216 107 206 222 230 162 172 181 181 185 191 186 182 180 172 170 172 185 191 188 188 188 183 179 172 167 167 185 190 194 191
154 236 78 137 132 61 0 263 164 131 134 227 210 257 220 235 262 227 153 180 182 184 187 191 188 186 183 180 179 181 179 186 187 191 189 188 178 181 180 169 172 188 201 195
245 258 232 178 191 158 224 174 134 137 115 263 24 272 207 218 216 209 195 174 181 189 190 189 190 191 190 191 187 183 184 192 190 195 197 193 193 198 190 195 186 190 195 203
260 270 205 188 218 143 202 160 148 114 71 189 176 24 267 178 231 228 211 194 189 193 188 191 192 194 194 195 192 190 189 188 200 209 205 205 204 209 205 199 200 197 195 197
242 259 171 156 185 133 132 92 67 56 47 273 205 184 266 192 208 222 190 203 179 197 195 197 196 195 195 198 197 197 197 197 203 210 207 211 212 206 198 203 206 195 195 199
314 265 91 121 78 27 80 80 100 49 14 258 328 169 262 224 220 211 194 203 193 194 200 195 196 196 197 200 201 202 203 202 203 204 206 212 212 214 217 216 215 210 212 216
314 342 167 180 159 181 186 163 152 158 182 230 85 263 264 181 220 205 213 213 200 194 199 202 201 200 200 202 200 203 207 206 203 202 204 211 213 218 220 226 217 221 223 228
311 274 297 208 160 148 212 198 168 99 2 123 282 285 277 240 234 213 217 207 188 192 196 201 203 204 203 203 204 202 207 207 207 204 207 208 214 212 211 216 220 223 226 222
208 305 305 300 100 306 177 158 98 33 150 152 246 90 256 229 211 227 198 202 192 187 193 201 204 204 206 206 206 207 207 209 208 205 206 212 210 211 211 219 219 216 215 218
105 118 293 348 35 182 312 222 56 120 140 156 168 240 231 191 201 193 207 202 188 180 189 197 202 207 208 208 207 208 209 212 218 212 209 209 209 208 215 218 216 217 219 224
341 142 291 249 295 322 210 119 131 140 217 201 154 274 15 84 85 103 130 190 193 186 185 192 197 204 208 211 211 211 212 215 223 222 215 214 215 216 217 220 223 220 224 229
294 348 15 346 8 6 51 353 299 104 59 190 138 265 57 84 64 71 89 171 192 189 186 185 193 205 211 215 218 214 215 220 220 226 220 219 218 221 221 219 218 225 228 231
120 106 154 174 212 235 10 342 334 106 112 203 208 270 60 73 88 60 75 143 189 197 191 191 196 206 213 215 222 220 217 219 217 223 219 222 221 221 225 224 227 225 229 229
77 149 297 235 236 113 67 8 19 73 67 183 299 171 55 54 109 80 74 83 171 201 201 205 202 206 212 214 222 224 219 225 217 217 213 218 217 221 222 220 217 220 221 228
4 237 302 148 21 104 84 18 8 65 2 168 28 82 95 73 96 76 45 33 129 188 203 203 206 214 221 222 222 227 216 204 208 211 215 213 217 227 223 222 226 232 232 229
90 74 39 274 319 273 53 340 340 172 23 269 202 298 67 73 69 54 55 44 357 188 187 201 209 207 210 211 219 216 205 203 205 207 211 221 227 232 228 226 226 241 236 237
141 115 104 247 5 205 296 57 281 54 49 59 79 87 97 91 75 59 54 68 100 117 153 194 201 199 202 214 213 209 198 192 194 217 219 227 235 246 242 229 242 255 234 241
20 126 71 113 51 317 305 288 188 201 257 271 168 140 116 117 82 40 44 53 69 120 159 143 158 156 178 175 195 210 201 192 223 230 216 232 235 242 241 247 252 252 249 236
43 49 112 116 152 205 228 262 205 178 354 279 239 174 161 162 62 328 6 75 89 111 163 186 182 201 187 206 168 252 204 232 227 225 224 225 230 233 248 244 248 250 255 242
6 4 122 156 168 271 254 230 181 160 226 164 190 129 108 98 136 146 138 120 120 124 130 166 201 187 176 195 189 209 211 215 213 223 221 251 265 267 261 249 243 247 243 239
169 134 214 102 107 247 205 169 171 223 156 141 139 104 83 116 118 116 100 96 105 105 112 145 181 191 194 196 183 206 186 185 199 193 212 253 244 240 240 235 239 237 231 231
248 182 185 176 224 287 300 250 135 166 195 155 152 132 150 141 136 128 119 113 111 107 108 114 127 140 131 142 178 187 186 198 195 195 206 228 225 249 243 236 229 220 211 214
240 179 159 93 259 251 316 107 97 106 173 168 146 150 152 141 142 135 130 129 120 110 109 110 113 115 116 120 129 169 167 172 183 188 202 205 220 219 219 232 225 217 213 225
201 150 145 271 252 211 227 144 113 114 111 138 131 132 138 139 141 133 133 127 112 98 93 94 103 111 121 129 138 142 146 150 157 178 186 189 203 202 221 225 218 220 219 217
191 171 163 212 187 166 180 140 132 125 121 141 146 128 126 128 134 136 137 122 102 93 83 79 98 112 117 122 126 129 138 151 167 187 187 216 225 227 242 252 261 254 237 219